TimeMDT,TemperatureF,Dew PointF,Humidity,Sea Level PressureIn,VisibilityMPH,Wind Direction,Wind SpeedMPH,Gust SpeedMPH,PrecipitationIn,Events,Conditions,WindDirDegrees,DateUTC
12:15 AM,59.4,41.2,51,30.39,10.0,East,8.1,-,N/A,,Clear,90,2013-06-18 06:15:00
12:35 AM,59.0,41.5,52,30.40,10.0,Calm,Calm,-,N/A,,Clear,0,2013-06-18 06:35:00
12:55 AM,58.6,41.5,53,30.40,10.0,East,5.8,-,N/A,,Clear,80,2013-06-18 06:55:00
1:15 AM,58.3,41.9,54,30.40,10.0,East,5.8,-,N/A,,Clear,100,2013-06-18 07:15:00
1:35 AM,58.3,42.3,55,30.40,10.0,ENE,4.6,-,N/A,,Clear,70,2013-06-18 07:35:00
1:55 AM,57.9,42.1,56,30.40,10.0,Calm,Calm,-,N/A,,Scattered Clouds,0,2013-06-18 07:55:00
2:15 AM,57.6,41.7,56,30.40,10.0,North,5.8,-,N/A,,Mostly Cloudy,360,2013-06-18 08:15:00
2:35 AM,55.6,41.4,59,30.39,10.0,North,4.6,-,N/A,,Overcast,350,2013-06-18 08:35:00
2:55 AM,55.2,41.0,59,30.39,10.0,NW,5.8,-,N/A,,Overcast,320,2013-06-18 08:55:00
3:15 AM,55.2,40.6,58,30.40,10.0,NW,5.8,-,N/A,,Overcast,320,2013-06-18 09:15:00
3:35 AM,55.0,40.1,57,30.40,10.0,NW,3.5,-,N/A,,Overcast,310,2013-06-18 09:35:00
3:55 AM,55.4,40.1,56,30.39,10.0,NNW,4.6,-,N/A,,Overcast,330,2013-06-18 09:55:00
4:15 AM,54.5,40.1,58,30.40,10.0,Calm,Calm,-,N/A,,Overcast,0,2013-06-18 10:15:00
4:35 AM,52.5,39.7,62,30.39,10.0,NNW,5.8,-,N/A,,Scattered Clouds,330,2013-06-18 10:35:00
4:55 AM,52.2,39.9,63,30.39,10.0,NW,9.2,-,N/A,,Clear,320,2013-06-18 10:55:00
5:15 AM,52.2,40.1,64,30.39,10.0,NW,9.2,-,N/A,,Clear,320,2013-06-18 11:15:00
5:35 AM,51.3,39.7,65,30.39,10.0,NW,10.4,-,N/A,,Clear,320,2013-06-18 11:35:00
5:55 AM,51.1,39.6,65,30.40,10.0,NW,9.2,-,N/A,,Clear,320,2013-06-18 11:55:00
6:15 AM,51.3,39.7,65,30.40,10.0,West,5.8,-,N/A,,Clear,280,2013-06-18 12:15:00
6:35 AM,51.8,39.7,63,30.40,10.0,WNW,8.1,-,N/A,,Clear,300,2013-06-18 12:35:00
6:55 AM,52.9,40.1,62,30.40,10.0,WNW,8.1,-,N/A,,Clear,300,2013-06-18 12:55:00
7:15 AM,53.2,39.4,59,30.40,10.0,NW,11.5,-,N/A,,Clear,310,2013-06-18 13:15:00
7:35 AM,54.5,39.6,57,30.39,10.0,NW,8.1,-,N/A,,Clear,320,2013-06-18 13:35:00
7:55 AM,56.3,40.1,55,30.39,10.0,NNW,8.1,-,N/A,,Clear,340,2013-06-18 13:55:00
8:15 AM,57.4,40.1,53,30.39,10.0,NW,6.9,-,N/A,,Clear,320,2013-06-18 14:15:00
8:35 AM,59.2,40.8,51,30.39,10.0,North,5.8,-,N/A,,Clear,10,2013-06-18 14:35:00
8:55 AM,61.7,42.3,49,30.37,10.0,North,4.6,-,N/A,,Clear,10,2013-06-18 14:55:00
9:15 AM,63.0,42.3,47,30.37,10.0,NNE,3.5,-,N/A,,Clear,20,2013-06-18 15:15:00
9:35 AM,66.0,41.7,41,30.35,10.0,North,3.5,-,N/A,,Clear,10,2013-06-18 15:35:00
9:55 AM,68.2,40.6,37,30.35,10.0,Calm,Calm,-,N/A,,Clear,0,2013-06-18 15:55:00
10:15 AM,71.2,39.4,31,30.34,10.0,South,9.2,18.4,N/A,,Clear,170,2013-06-18 16:15:00
10:35 AM,72.9,39.7,30,30.32,10.0,SE,15.0,23.0,N/A,,Clear,130,2013-06-18 16:35:00
10:55 AM,74.5,38.5,27,30.31,10.0,South,11.5,23.0,N/A,,Clear,180,2013-06-18 16:55:00
11:15 AM,74.8,37.9,26,30.30,10.0,South,16.1,24.2,N/A,,Clear,180,2013-06-18 17:15:00
11:35 AM,75.7,37.4,25,30.29,10.0,South,11.5,25.3,N/A,,Clear,170,2013-06-18 17:35:00
11:55 AM,77.5,35.2,22,30.29,10.0,South,13.8,21.9,N/A,,Clear,180,2013-06-18 17:55:00
12:15 PM,78.6,33.3,19,30.27,10.0,South,10.4,21.9,N/A,,Scattered Clouds,170,2013-06-18 18:15:00
12:35 PM,78.8,36.1,21,30.26,10.0,SSE,12.7,18.4,N/A,,Clear,150,2013-06-18 18:35:00
12:55 PM,78.3,36.3,22,30.26,10.0,South,16.1,25.3,N/A,,Clear,180,2013-06-18 18:55:00
1:15 PM,74.3,38.1,27,30.25,10.0,South,19.6,25.3,N/A,,Scattered Clouds,190,2013-06-18 19:15:00
1:35 PM,77.5,38.3,24,30.25,10.0,SSW,17.3,23.0,N/A,,Scattered Clouds,200,2013-06-18 19:35:00
1:55 PM,77.0,32.5,20,30.24,10.0,South,12.7,23.0,N/A,,Scattered Clouds,180,2013-06-18 19:55:00
2:15 PM,78.4,36.3,22,30.23,10.0,South,18.4,27.6,N/A,,Clear,190,2013-06-18 20:15:00
2:35 PM,78.8,31.8,18,30.22,10.0,South,18.4,28.8,N/A,,Clear,190,2013-06-18 20:35:00
2:55 PM,79.2,35.2,20,30.21,10.0,South,20.7,28.8,N/A,,Clear,180,2013-06-18 20:55:00
3:15 PM,80.2,31.3,17,30.20,10.0,SSW,16.1,24.2,N/A,,Clear,210,2013-06-18 21:15:00
3:35 PM,79.5,31.6,18,30.20,10.0,South,17.3,32.2,N/A,,Clear,190,2013-06-18 21:35:00
3:55 PM,76.5,30.9,19,30.20,10.0,South,18.4,26.5,N/A,,Clear,180,2013-06-18 21:55:00
4:15 PM,78.6,23.9,13,30.18,10.0,SSW,24.2,33.4,N/A,,Clear,210,2013-06-18 22:15:00
4:35 PM,78.6,26.6,15,30.18,10.0,SSW,20.7,33.4,N/A,,Clear,210,2013-06-18 22:35:00
4:55 PM,75.4,28.2,18,30.17,10.0,SSW,20.7,31.1,N/A,,Clear,200,2013-06-18 22:55:00
5:15 PM,78.6,28.4,16,30.15,10.0,SSW,15.0,28.8,N/A,,Scattered Clouds,210,2013-06-18 23:15:00
5:35 PM,80.6,27.7,14,30.15,10.0,SW,11.5,21.9,N/A,,Scattered Clouds,220,2013-06-18 23:35:00
5:55 PM,80.1,26.4,14,30.14,10.0,SSW,10.4,18.4,N/A,,Clear,210,2013-06-18 23:55:00
6:15 PM,79.0,27.1,15,30.15,10.0,SSW,9.2,-,N/A,,Clear,210,2013-06-19 00:15:00
6:35 PM,77.4,25.5,15,30.14,10.0,SSW,17.3,26.5,N/A,,Clear,200,2013-06-19 00:35:00
6:55 PM,75.6,26.6,16,30.14,10.0,SSW,11.5,20.7,N/A,,Clear,200,2013-06-19 00:55:00
7:15 PM,74.7,27.5,17,30.15,10.0,SW,8.1,16.1,N/A,,Clear,220,2013-06-19 01:15:00
7:35 PM,74.1,28.4,18,30.15,10.0,SW,9.2,16.1,N/A,,Scattered Clouds,230,2013-06-19 01:35:00
7:55 PM,73.9,28.9,19,30.15,10.0,NW,6.9,-,N/A,,Scattered Clouds,320,2013-06-19 01:55:00
8:15 PM,71.6,27.3,19,30.17,10.0,Calm,Calm,-,N/A,,Clear,0,2013-06-19 02:15:00
8:35 PM,70.9,27.5,20,30.17,10.0,WNW,6.9,-,N/A,,Clear,300,2013-06-19 02:35:00
8:55 PM,70.2,25.9,19,30.16,10.0,WNW,6.9,-,N/A,,Clear,300,2013-06-19 02:55:00
9:15 PM,66.4,29.1,25,30.17,10.0,WSW,8.1,-,N/A,,Clear,240,2013-06-19 03:15:00
9:35 PM,65.3,30.4,27,30.18,10.0,West,8.1,-,N/A,,Clear,260,2013-06-19 03:35:00
9:55 PM,63.3,31.6,31,30.19,10.0,WSW,6.9,-,N/A,,Clear,240,2013-06-19 03:55:00
10:15 PM,61.7,31.5,32,30.20,10.0,SSW,3.5,-,N/A,,Clear,200,2013-06-19 04:15:00
10:35 PM,63.7,31.6,30,30.21,10.0,Calm,Calm,-,N/A,,Clear,0,2013-06-19 04:35:00
10:55 PM,65.1,35.4,33,30.20,10.0,SE,13.8,21.9,N/A,,Clear,130,2013-06-19 04:55:00
11:15 PM,63.3,34.5,34,30.21,10.0,South,6.9,-,N/A,,Clear,190,2013-06-19 05:15:00
11:35 PM,62.6,34.7,35,30.21,10.0,SSW,6.9,-,N/A,,Clear,200,2013-06-19 05:35:00
11:55 PM,62.2,37.9,41,30.21,10.0,SSE,5.8,-,N/A,,Clear,150,2013-06-19 05:55:00